Location: Saint-Denis
(20.8800°S, 55.4481°E)
Time: 21:23:41
(UTC+04:00)

UNISAT 6 - Visible Passes

Search period start: 31 May 2023 00:00
Search period end: 10 June 2023 00:00
Orbit: 599 x 680 km, 97.7° (Epoch: 31 May)

Date Brightness Start Highest point End Pass type
(mag) Time Alt. Az. Time Alt. Az. Time Alt. Az.
31 May ? 05:04:42 10° SSE 05:08:55 34° E 05:13:02 10° NNE visible
01 Jun ? 05:27:39 10° SSE 05:32:17 71° E 05:36:47 10° N visible
02 Jun ? 05:51:01 10° S 05:55:34 57° WSW 06:00:00 10° NNW visible
02 Jun ? 18:15:40 10° NW 18:18:00 14° W 18:20:22 10° WSW visible
03 Jun ? 04:39:32 10° ESE 04:42:22 16° E 04:45:09 10° NE visible
03 Jun ? 06:14:50 10° SSW 06:18:47 28° WSW 06:22:38 10° NW visible
04 Jun ? 05:01:40 10° SE 05:05:46 32° E 05:09:46 10° NNE visible
05 Jun ? 05:24:32 10° SSE 05:29:07 65° E 05:33:33 10° N visible
06 Jun ? 05:47:50 10° S 05:52:23 61° WSW 05:56:47 10° NNW visible
06 Jun ? 18:12:06 10° NW 18:14:45 16° W 18:17:29 10° WSW visible
07 Jun ? 04:36:36 10° ESE 04:39:08 15° E 04:41:37 10° NE visible
07 Jun ? 06:11:35 10° SSW 06:15:35 30° WSW 06:19:29 10° NW visible
08 Jun ? 04:58:34 10° SE 05:02:31 29° E 05:06:22 10° NNE visible
09 Jun ? 05:21:20 10° SSE 05:25:51 59° E 05:30:13 10° N visible
